Flag for Germany Weather past 2 weeks in Herten, North Rhine-Westphalia, Germany

Now
61 °F

Clear.


Feels Like: 61 °F
Forecast: 55 / 74 °F
Wind: 2 mph from Southeast

Location: Essen

Current Time: Sep 17, 2014 at 4:09:40 AM

Latest Report: Sep 17, 2014 at 3:00 AM


Visibility: 13 mi

Pressure: 29.94 "Hg

Humidity: 86%

Dew point: 56 °F

Location of HertenLocation

Historic Weather in Herten — Graph

°F

Herten temperature yesterday

Maximum temperature yesterday: 76 °F (at 2:00 PM)
Minimum temperature yesterday: 60 °F (at 8:00 AM)
Average temperature yesterday: 67 °F

Past Weeks' High & Low Weather Summary

 TemperatureHumidityPressure
High76 °F (Sep 16, 2:00 PM)100% (Sep 3, 4:00 AM)30.25 "Hg (Sep 3, 4:00 AM)
Low48 °F (Sep 12, 6:00 AM)51% (Sep 16, 3:00 PM)29.88 "Hg (Sep 6, 5:00 PM)
Average62 °F80%30.08 "Hg
* Reported Sep 2 1:00 PM — Sep 17 3:00 AM, Herten, Weather by CustomWeather, © 2014

Note: Actual official high and low records may vary slightly from our data, if they occured in-between our weather recording intervals... More about our weather records

Advertising

Herten weather history for previous 24 hours

 ConditionsComfort  
Time TempWeatherWind HumidityBarometerVisibility
3:00 AM
Sep 17
61 °FClear.2 mph86%29.94 "Hg13 mi
2:00 AM61 °FClear.2 mph85%29.95 "Hg12 mi
1:00 AM62 °FClear.2 mph84%29.95 "Hg12 mi
12:00 AM62 °FClear.2 mph83%29.96 "Hg12 mi
11:00 PM
Sep 16
64 °FClear.2 mph80%29.95 "Hg15 mi
10:00 PM65 °FClear.3 mph77%29.96 "Hg16 mi
9:00 PM67 °FClear.2 mph73%29.96 "Hg19 mi
8:00 PM69 °FPassing clouds.2 mph68%29.94 "Hg19 mi
7:00 PM70 °FSunny.1 mph65%29.94 "Hg19 mi
6:00 PM73 °FPassing clouds.5 mph56%29.93 "Hg25 mi
5:00 PM74 °FScattered clouds.3 mph55%29.93 "Hg19 mi
4:00 PM74 °FSunny.5 mph54%29.94 "Hg15 mi
3:00 PM75 °FScattered clouds.7 mph51%29.95 "Hg14 mi
2:00 PM76 °FPartly sunny.7 mph54%29.96 "Hg14 mi
1:00 PM71 °FScattered clouds.2 mph68%29.97 "Hg13 mi
12:00 PM72 °FScattered clouds.1 mph64%29.98 "Hg12 mi
11:00 AM66 °FOvercast.1 mph78%30.00 "Hg8 mi
10:00 AM65 °FOvercast.1 mph83%30.00 "Hg9 mi
9:00 AM64 °FPassing clouds.1 mph84%29.99 "Hg7 mi
8:00 AM60 °FFog.2 mph96%30.00 "Hg4 mi
7:00 AM61 °FOvercast.1 mph94%30.00 "Hg5 mi
6:00 AM61 °FFog.2 mph95%29.99 "Hg4 mi
5:00 AM62 °FOvercast.1 mph91%29.99 "Hg6 mi
4:00 AM64 °FOvercast.1 mph87%30.00 "Hg7 mi
Weather by CustomWeather, © 2014

See weather overviewHow to use our weather pages